Погода в Даниловке

Погода в Даниловке : погода сейчас, прогноз погоды и архив. Всё, что Вы хотите узнать о погоде в Даниловке!

Хотите узнать прогноз погоды в Даниловке? Тогда Вам сюда: Погода в Даниловке

Поиск расширенной информации на нашем сайте:

Другие новости

Новости СМИ2

Главная страница сайта

Новости сайта

03.07.2017

Напоминаем, что на нашем специализированном сайте Метеоцентр.Азия вы можете получить высокодетализированные автоматические прогнозы погоды по пунктам России, СНГ и мира в авиационном формате (включающие направление и скорость ветра, видимость, явления погоды, количество и форму облачности, нижнюю и верхнюю границу облачности).


Погода в Даниловке - сегодня

Время (UTC), дата Ветер
(°,м/с) 
Видим.   Явления Облачность Т
(°С)
Тd
(°С)
f(%) Тe
(°С)
Pmin
(гПа)
dP
(гПа)
Po
(мм)
O2
(г/м3)
Тmin Tmax R s Состояние
почвы
12 21.09.18 360 (С) 20000 м    1/0 верхняя 
[Ci fib]
+23.5 +9.9 42 +24  1018.7  0.3  755  278           
18 21.09.18 060 (СВ) 20000 м    4/0 верхняя 
[Ci fib]
+14.3 +10 75 +17  1021.5  1.5  757  288           
21 21.09.18 010 (С) 4000 м  дымка  ясно 
+10.8 +9.4 91 +12  1022.4  0.8  758  292           
00 22.09.18 тихо ()   4000 м  дымка  ясно 
+7.9 +6.9 93 +8  1023.3  0.7  758  296           
03 22.09.18 тихо ()   4000 м  дымка  3/0 верхняя 
[Ci fib]
+6.5 +5.7 95 +7  1024.2  0.8  759  298  +6.5        сухая 
06 22.09.18 тихо ()   20000 м    3/0 верхняя 
[Ci fib]
+18.4 +11.1 62 +21  1023.9  0.3  759  284  +6.5         
09 22.09.18 170 (Ю) 20000 м    6/3 600 м верхняя 
[Cu hum|Ci fib]
+24 +9.9 41 +25  1023  -0.7  758  279           
12 22.09.18 160 (Ю) 20000 м    8/1 600 м средняя, верхняя 
[Cu hum|Ac trans|Ci fib]
+24.3 +9 38 +24  1021.7  -1.3  757  279           
18 22.09.18 тихо ()   20000 м    ясно 
+12.2 +9.8 85 +13  1021.4  -0.2  757  290           
21 22.09.18 тихо ()   20000 м    ясно 
+10.1 +8.5 90 +10  1021  -0.5  756  292           
00 23.09.18 050 (СВ) 4000 м  дымка  ясно 
+8.8 +7.7 93 +10  1020.5  -0.5  756  294           
03 23.09.18 050 (СВ) 4000 м  дымка  1/0 верхняя 
[Ci fib]
+9.2 +8.4 95 +9  1019.4  -1  755  293  +7.7        сухая 
06 23.09.18 180 (Ю) 20000 м    1/0 верхняя 
[Ci fib]
+20.4 +10.6 53 +22  1018.2  -0.8  755  281           
18 23.09.18 160 (Ю) 20000 м  зарница  10/8 600 м кучево-дожд., верхняя 
[Cb calv|Cs]
+18.5 +9 54 +19  1009.4  -2.6  748  281           
21 23.09.18 270 (З) 4000 м  ливневой дождь  10/10 300 м кучево-дожд. 
[Cb calv]
+14.3 +13.5 95 +22  1010.2  0.7  749  284           
03 24.09.18 290 (З) 5{12}  20000 м  {ливн. осадки}  10/10 600 м кучево-дожд. 
[Cb calv]
+10.4 +8.1 86 +9  1013.7  2.5  751  290  +10.3    15    влажная 
09 24.09.18 320 (СЗ) 20000 м    8/8 600 м 
[Cu med, cong]
+15.2 +6.6 56 +15  1016.3  1.3  753  286           
12 24.09.18 280 (З) 20000 м    5/3 600 м верхняя 
[Sc|Ci fib]
+17.5 +5.3 45 +18  1015.9  -0.3  753  284           
18 24.09.18 тихо ()   20000 м    3/0 верхняя 
[Ci fib]
+8.8 +6.5 85 +9  1015  -0.5  752  292           
21 24.09.18 тихо ()   4000 м  дымка  4/0 верхняя 
[Ci fib]
+6.3 +5.3 93 +6  1014.2  -0.9  751  295           
00 25.09.18 120 (ЮВ) 20000 м    3/3 600 м верхняя 
[Sc|Ci fib]
+9.2 +6.1 81 +9  1011.7  -2.3  749  291           
03 25.09.18 160 (Ю) 4-10{10}  20000 м    9/9 600 м 
[Sc]
+11.8 +6.1 68 +11  1009.8  -1.7  748  288  +6.1        влажная 
06 25.09.18 190 (Ю) 4{10}  20000 м    10/10 600 м 
[Sc]
+14.6 +8.7 68 +14  1008.3  -1.3  747  284           
18 25.09.18 240 (ЮЗ) 20000 м  {ливн. осадки}  10/10 600 м кучево-дожд. 
[Cb calv]
+9.9 +8.5 91 +10  1015.8  2.2  753  291           
21 25.09.18 тихо ()   4000 м  дымка  9/9 600 м кучево-дожд. 
[Cb calv]
+8.1 +6.9 92 +8  1016.8  0.9  753  294           
Время (UTC), дата Ветер
(°,м/с) 
Видим.   Явления Облачность Т
(°С)
Тd
(°С)
f(%) Тe
(°С)
Pmin
(гПа)
dP
(гПа)
Po
(мм)
O2
(г/м3)
Тmin Tmax R s Состояние
почвы

Для получения пояснительной информации подведите курсор к названию столбца.

ПОГОДА в Даниловке - архив

Всё, что Вы хотите узнать о погоде в Даниловке - удобно и подробно!

Выберите нужную дату (начиная с 1 января 2015* года) и нажмите кнопку "Найти".
Будут отображены архивные сводки погоды по пункту Даниловка, начиная с указанной даты.


Отображать данные в формате CSV (для использования в таблицах Excel)


Внимание! Наш архив погоды предназначен исключительно для личного некоммерческого использования в познавательных целях. Если Вам необходимы официальные справки о состоянии погоды (для производственных, юридических, коммерческих и т.п. целей), обращайтесь в органы Росгидромета.

*Примечание: данная дата относится к архиву по метеостанциям СССР (Россия, СНГ, Балтия).
Архив по метеостанциям Зарубежной Европы и Азии (кроме Китая) хранится 10 дней, по другим регионам земного шара (Китай, Африка, Америка, Австралия, Океания) - 1 день.

Даниловка - район местоположения метеостанции


Название, широта, долгота, высота метеостанции:
Даниловка 50.4°ш. 44.1°д. 102 м над ур. моря [Российская Федерация]

Дополнительная информация

В oтличие oт бoльшинства пoгoдных сайтoв мы публикуем пoдрoбную метеoинфoрмацию в детальнoм прoфессиoнальнoм фoрмате.

Характеристики температуры и влажнoсти вoздуха измеряются на высoте 2 м в тени вдали oт зданий и деревьев.
Скoрoсть ветра измеряется на высoте 10 м (на урoвне рoста челoвека скoрoсть ветра ниже в 1.5-2 раза). Если метеoстанция нахoдится в гoрoде или в лесу, тo скoрoсть ветра занижена на 2-4 м/с пo сравнению с oткрытым местoм. Скoрoсть ветра над акватoриями крупных рек и oзёр, а также на вершинах хoлмoв на 2-5 м/с выше, чем в oбычных услoвиях.
Атмoсфернoе давление в разных тoчках местнoсти мoжет значительнo oтличаться oт давления на метеoстанции, в зависимoсти oт услoвий рельефа (при пoдъёме на 10 м давление пoнижается примернo на 1 мм рт.ст.).